[[{"header":{"parameterUnit":"m.s-1","parameterCategory":1,"la1":30.2992,"la2":30.254,"lo1":-89.0895,"lo2":-89.0443,"dy":0.0025,"dx":0.0025,"nx":19,"ny":19,"refTime":"2026-04-19T03:00:00:Z","depth":0,"parameterNumber":2,"parameterNumberName":"U-component_of_WINDS"},"data":[0,0,0,-3.5061,-3.5064,-3.5208,-3.5209,-3.5396,-3.5398,0,0,0,0,0,0,0,0,0,0,0,-3.5022,-3.5024,-3.5061,-3.5064,-3.5208,-3.5209,-3.5396,-3.5398,0,0,0,0,0,0,0,0,0,0,0,-3.5021,-3.5023,-3.5025,-3.5065,-3.5208,-3.5209,-3.5395,-3.5285,0,0,0,0,0,0,0,0,0,0,-3.5145,-3.5114,-3.5023,-3.5025,-3.5066,-3.5208,-3.5209,-3.528,-3.5292,-3.5333,0,-3.5372,0,-3.5388,-3.5411,-3.5412,0,0,0,-3.5061,-3.5103,-3.5139,-3.5025,-3.5067,-3.5208,-3.5142,-3.5287,-3.5301,-3.5349,-3.5375,-3.5382,-3.5391,-3.5412,-3.5413,-3.5665,-3.5666,0,0,-3.5053,-3.505,-3.5129,-3.5148,-3.5128,-3.5138,-3.5147,-3.5295,-3.5322,-3.5376,-3.5386,-3.5394,-3.5413,-3.5415,-3.5664,-3.5665,0,0,0,-3.5032,-3.5045,-3.5076,-3.514,-3.5166,-3.5142,-3.5152,-3.5315,-3.5326,-3.5388,-3.5397,-3.5415,-3.5417,-3.5662,-3.5664,-3.5729,0,0,0,-3.5027,-3.5033,-3.5073,-3.5072,-3.5163,-3.5243,-3.5169,-3.5316,-3.5332,-3.5396,-3.5415,-3.5419,-3.5661,-3.5663,-3.5724,-3.5761,0,0,0,-3.5011,-3.5031,-3.5053,-3.5072,-3.5134,-3.5241,-3.526,-3.5319,-3.5338,-3.5412,-3.5419,-3.566,-3.5663,-3.572,-3.5754,-3.5827,0,0,0,-3.4993,-3.5108,-3.5054,-3.5185,-3.5133,-3.528,-3.5259,-3.5368,-3.5439,-3.5416,-3.5661,-3.5664,-3.5719,-3.5749,-3.5823,-3.589,-3.5918,0,0,-3.5136,-3.5125,-3.5202,-3.5158,-3.5314,-3.5258,-3.5423,-3.5489,-3.5498,-3.5608,-3.5614,-3.5726,-3.5753,-3.5826,-3.607,-3.6092,0,0,0,-3.5247,-3.5302,-3.5344,-3.5412,-3.5467,-3.5516,-3.5558,-3.5582,-3.5676,-3.5555,-3.5771,-3.5788,-3.5831,-3.5863,-3.5882,-3.5919,-3.5678,-3.5678,-3.5678,-3.5446,-3.5452,-3.558,-3.5603,-3.5669,-3.571,-3.5764,-3.5804,-3.5789,-3.584,-3.5874,-3.6021,-3.6059,-3.6073,-3.6112,-3.5908,-3.5908,-3.5908,-3.5909,-3.5658,-3.5738,-3.5716,-3.5833,-3.5837,-3.5934,-3.5978,-3.5964,-3.6054,-3.5996,-3.6034,-3.5972,-3.6097,-3.6131,-3.5914,-3.5913,-3.5912,-3.5912,-3.5911,-3.5791,-3.5831,-3.5859,-3.5957,-3.6032,-3.6049,-3.6138,-3.6137,-3.6137,-3.6175,-3.6211,-3.621,-3.621,-3.6192,-3.6192,-3.6193,-3.6193,-3.6193,-3.6194,-3.592,-3.5949,-3.6025,-3.6091,-3.6134,-3.6191,-3.6232,-3.6274,-3.632,-3.6313,-3.6313,-3.6294,-3.6108,-3.6062,-3.6202,-3.62,-3.6199,-3.6199,-3.6198,-3.6136,-3.6087,-3.6204,-3.6247,-3.6324,-3.6399,-3.6396,-3.6481,-3.6515,-3.6559,-3.653,-3.6392,-3.638,-3.6365,-3.6328,-3.6528,-3.6528,-3.6528,-3.6528,-3.625,-3.6244,-3.6363,-3.6433,-3.65,-3.6509,-3.6639,-3.6671,-3.6696,-3.6717,-3.6688,-3.6636,-3.6621,-3.6619,-3.6598,-3.6563,-3.6819,-3.682,-3.682,-3.6384,-3.6384,-3.6497,-3.6522,-3.6582,-3.6632,-3.6755,-3.6834,-3.6851,-3.6832,-3.6734,-3.6722,-3.6639,-3.6612,-3.6593,-3.6562,-3.6497,0,0]},{"header":{"parameterUnit":"m.s-1","parameterCategory":1,"la1":30.2992,"la2":30.254,"lo1":-89.0895,"lo2":-89.0443,"dy":0.0025,"dx":0.0025,"nx":19,"ny":19,"refTime":"2026-04-19T03:00:00:Z","depth":0,"parameterNumber":3,"parameterNumberName":"V-component_of_WINDS"},"data":[0,0,0,-8.3676,-8.368,-8.384,-8.3841,-8.4058,-8.4061,0,0,0,0,0,0,0,0,0,0,0,-8.364,-8.3642,-8.3675,-8.368,-8.384,-8.3841,-8.4058,-8.4061,0,0,0,0,0,0,0,0,0,0,0,-8.3639,-8.3642,-8.3644,-8.3681,-8.384,-8.3841,-8.4058,-8.3931,0,0,0,0,0,0,0,0,0,0,-8.3772,-8.3753,-8.3641,-8.3644,-8.3682,-8.384,-8.3841,-8.3924,-8.3939,-8.3992,0,-8.4048,0,-8.4058,-8.4076,-8.4077,0,0,0,-8.3669,-8.3741,-8.3774,-8.3645,-8.3683,-8.384,-8.3765,-8.3932,-8.3948,-8.4011,-8.4051,-8.4058,-8.4062,-8.4078,-8.4079,-8.4434,-8.4436,0,0,-8.3661,-8.3675,-8.3763,-8.3785,-8.3766,-8.376,-8.377,-8.3942,-8.3983,-8.4051,-8.4063,-8.4065,-8.4079,-8.4081,-8.4432,-8.4435,0,0,0,-8.3642,-8.3669,-8.3697,-8.3777,-8.3805,-8.3765,-8.3777,-8.3976,-8.3984,-8.4065,-8.4068,-8.4081,-8.4084,-8.443,-8.4433,-8.4555,0,0,0,-8.3636,-8.3658,-8.3694,-8.3704,-8.3802,-8.3893,-8.3807,-8.3972,-8.3991,-8.4067,-8.4081,-8.4086,-8.4427,-8.4431,-8.4547,-8.461,0,0,0,-8.3625,-8.3657,-8.3685,-8.3704,-8.3775,-8.389,-8.3908,-8.3976,-8.3994,-8.4077,-8.4087,-8.4426,-8.4431,-8.4539,-8.4598,-8.4709,0,0,0,-8.3617,-8.3788,-8.3687,-8.3879,-8.3774,-8.3966,-8.3907,-8.4048,-8.4135,-8.4082,-8.4428,-8.4433,-8.4537,-8.459,-8.4701,-8.4805,-8.4851,0,0,-8.3841,-8.3816,-8.3928,-8.3842,-8.4057,-8.394,-8.4171,-8.4235,-8.4227,-8.4364,-8.4373,-8.455,-8.4597,-8.4707,-8.5096,-8.5133,0,0,0,-8.4003,-8.4084,-8.4138,-8.4224,-8.4279,-8.4331,-8.4358,-8.4381,-8.4498,-8.4302,-8.4619,-8.4646,-8.471,-8.4759,-8.479,-8.4844,-8.4456,-8.4456,-8.4455,-8.434,-8.4325,-8.4509,-8.4513,-8.4596,-8.4623,-8.4688,-8.4723,-8.468,-8.4755,-8.4796,-8.5035,-8.5093,-8.5116,-8.5172,-8.4849,-8.485,-8.485,-8.485,-8.4667,-8.4779,-8.4721,-8.4879,-8.486,-8.499,-8.5022,-8.4987,-8.5103,-8.5002,-8.5058,-8.495,-8.5156,-8.5204,-8.4859,-8.4858,-8.4857,-8.4856,-8.4855,-8.4887,-8.4938,-8.4966,-8.5089,-8.5183,-8.5179,-8.5295,-8.5271,-8.525,-8.5305,-8.5345,-8.5343,-8.5338,-8.5326,-8.5327,-8.5328,-8.5328,-8.5329,-8.5329,-8.5104,-8.5132,-8.5235,-8.5309,-8.5361,-8.5425,-8.5454,-8.5502,-8.555,-8.5524,-8.5524,-8.5473,-8.518,-8.5107,-8.5342,-8.534,-8.5338,-8.5337,-8.5336,-8.5443,-8.5363,-8.5522,-8.5575,-8.5659,-8.5754,-8.5724,-8.5825,-8.5861,-8.5918,-8.5856,-8.5643,-8.5614,-8.559,-8.5529,-8.5859,-8.5859,-8.5859,-8.586,-8.5629,-8.5613,-8.5771,-8.5856,-8.5936,-8.5925,-8.6101,-8.6124,-8.6133,-8.6154,-8.6103,-8.602,-8.5996,-8.5981,-8.5948,-8.5892,-8.6307,-8.6307,-8.6308,-8.5836,-8.5827,-8.5984,-8.5997,-8.6061,-8.6115,-8.628,-8.6376,-8.637,-8.6325,-8.617,-8.6151,-8.6017,-8.5975,-8.5928,-8.5877,-8.5772,0,0]}]]